CW1459 Weather Reports


time (UTC)temp
C
wind
direction
speed
KPH
gust
KPH
rain 1hr
cm
rain 24hr
cm
rain mn
cm
humidity
%
barometer
mb
20190419131305 20 186 14.5 25.7 0.00 0.00 0.00 76 1005.3
20190419130252 20 153 11.3 19.3 0.00 0.00 0.00 77 1005.5
20190419125257 20 204 14.5 29.0 0.00 0.00 0.00 77 1005.6
20190419124259 20 176 14.5 27.4 0.00 0.00 0.00 77 1005.7
20190419123304 20 216 12.9 40.2 0.00 0.00 0.00 78 1005.5
20190419122252 20 199 16.1 25.7 0.00 0.00 0.00 78 1005.5
20190419121257 19 161 20.9 35.4 0.00 0.00 0.00 77 1005.4
20190419120302 19 175 16.1 30.6 0.00 0.00 0.00 79 1005.3
20190419115306 18 238 14.5 25.7 0.00 0.00 0.00 79 1005.2
20190419114251 18 188 17.7 33.8 0.00 0.00 0.00 79 1005.1
20190419113255 18 130 17.7 29.0 0.00 0.00 0.00 79 1005.0
20190419112305 18 188 16.1 30.6 0.00 0.00 0.00 80 1004.9
20190419111300 18 148 17.7 30.6 0.00 0.00 0.00 80 1004.9
20190419110304 18 153 11.3 40.2 0.00 0.00 0.00 80 1004.8
20190419105250 18 180 14.5 35.4 0.00 0.00 0.00 79 1004.7
20190419104259 18 105 12.9 32.2 0.00 0.00 0.00 79 1004.8
20190419103304 18 168 12.9 29.0 0.00 0.00 0.00 79 1004.5
20190419102255 18 167 16.1 30.6 0.00 0.00 0.00 78 1004.4
20190419101303 18 155 14.5 30.6 0.00 0.00 0.00 78 1004.4
20190419100252 18 138 19.3 35.4 0.00 0.00 0.00 78 1004.6
20190419095306 18 182 12.9 27.4 0.00 0.00 0.00 77 1004.4
20190419094253 18 169 12.9 32.2 0.00 0.00 0.00 76 1004.5
20190419093300 18 212 19.3 29.0 0.00 0.00 0.00 76 1004.6
20190419092251 18 160 14.5 25.7 0.00 0.00 0.00 75 1004.8
20190419091303 18 188 17.7 29.0 0.00 0.00 0.00 75 1004.8
20190419090253 18 182 12.9 27.4 0.00 0.00 0.00 74 1005.0
20190419085305 18 147 19.3 37.0 0.00 0.00 0.00 74 1005.2
20190419084251 18 194 16.1 35.4 0.00 0.00 0.00 73 1005.4
20190419083302 19 163 17.7 32.2 0.00 0.00 0.00 72 1005.5
20190419082251 19 181 17.7 32.2 0.00 0.00 0.00 72 1005.5
20190419081300 19 195 14.5 38.6 0.00 0.00 0.00 71 1005.6
20190419080250 19 192 20.9 30.6 0.00 0.00 0.00 70 1005.5
20190419075301 20 170 17.7 43.5 0.00 0.00 0.00 69 1005.5
20190419074253 20 238 19.3 33.8 0.00 0.00 0.00 69 1005.4
20190419073304 20 175 20.9 35.4 0.00 0.00 0.00 68 1005.5
20190419072257 20 186 24.1 40.2 0.00 0.00 0.00 68 1005.4
20190419071248 20 170 17.7 38.6 0.00 0.00 0.00 67 1005.4
20190419070255 20 178 25.7 45.1 0.00 0.00 0.00 67 1005.4
20190419065249 20 197 20.9 33.8 0.00 0.00 0.00 66 1005.6
20190419064302 20 180 17.7 46.7 0.00 0.00 0.00 65 1005.7
20190419063252 20 165 17.7 30.6 0.00 0.00 0.00 64 1005.7
20190419062259 20 187 19.3 30.6 0.00 0.00 0.00 63 1005.8
20190419061248 20 170 19.3 33.8 0.00 0.00 0.00 62 1005.9
20190419060258 20 148 19.3 30.6 0.00 0.00 0.00 61 1006.0
20190419055250 21 181 19.3 32.2 0.00 0.00 0.00 60 1006.1
20190419054257 21 213 17.7 35.4 0.00 0.00 0.00 59 1006.2
20190419053304 21 173 17.7 33.8 0.00 0.00 0.00 58 1006.2
20190419052256 21 170 19.3 32.2 0.00 0.00 0.00 57 1006.3
20190419051305 21 89 17.7 29.0 0.00 0.00 0.00 57 1006.2
20190419050254 21 164 14.5 35.4 0.00 0.00 0.00 57 1006.4
20190419045301 21 169 16.1 32.2 0.00 0.00 0.00 56 1006.5
20190419044301 21 173 17.7 30.6 0.00 0.00 0.00 56 1006.4
20190419043249 21 217 14.5 37.0 0.00 0.00 0.00 56 1006.5
20190419042255 21 159 19.3 32.2 0.00 0.00 0.00 55 1006.5
20190419041302 21 159 20.9 32.2 0.00 0.00 0.00 54 1006.5
20190419040251 21 184 16.1 33.8 0.00 0.00 0.00 54 1006.6
20190419035258 21 193 14.5 32.2 0.00 0.00 0.00 53 1006.6
20190419034248 21 182 16.1 30.6 0.00 0.00 0.00 52 1006.8
20190419033253 22 192 17.7 30.6 0.00 0.00 0.00 51 1006.9
20190419032300 22 189 19.3 38.6 0.00 0.00 0.00 51 1006.8
20190419031253 22 159 17.7 40.2 0.00 0.00 0.00 51 1006.7
20190419030304 22 107 22.5 33.8 0.00 0.00 0.00 50 1006.8
20190419025252 22 198 19.3 35.4 0.00 0.00 0.00 50 1006.9
20190419024256 22 165 16.1 32.2 0.00 0.00 0.00 49 1006.9
20190419023302 22 165 16.1 38.6 0.00 0.00 0.00 49 1006.9
20190419022251 22 207 17.7 40.2 0.00 0.00 0.00 49 1006.9
20190419021304 22 171 16.1 35.4 0.00 0.00 0.00 49 1007.0
20190419020251 22 162 12.9 33.8 0.00 0.00 0.00 49 1007.0
20190419015259 23 225 17.7 37.0 0.00 0.00 0.00 49 1007.1
20190419014306 23 166 20.9 40.2 0.00 0.00 0.00 49 1007.0
20190419013256 23 178 17.7 35.4 0.00 0.00 0.00 50 1007.0
20190419012250 23 165 17.7 29.0 0.00 0.00 0.00 51 1007.0
20190419011302 23 157 19.3 32.2 0.00 0.00 0.00 51 1007.0
20190419010249 23 153 16.1 35.4 0.00 0.00 0.00 52 1006.8
20190419005256 23 146 16.1 27.4 0.00 0.00 0.00 53 1006.7
20190419004308 23 165 16.1 35.4 0.00 0.00 0.00 54 1006.5
20190419003254 22 123 17.7 29.0 0.00 0.00 0.00 56 1006.3
20190419002306 22 84 14.5 25.7 0.00 0.00 0.00 56 1006.4
20190419001253 22 150 9.7 20.9 0.00 0.00 0.00 57 1006.4
20190419000259 22 142 4.8 14.5 0.00 0.00 0.00 56 1006.3
20190418235304 22 165 11.3 22.5 0.00 0.00 0.00 56 1006.3
20190418234249 23 138 4.8 17.7 0.00 0.00 0.00 54 1006.3
20190418233259 23 104 8.0 16.1 0.00 0.00 0.00 53 1006.6
20190418232305 23 154 6.4 16.1 0.00 0.00 0.00 53 1006.6
20190418231251 24 172 8.0 19.3 0.00 0.00 0.00 51 1006.8
20190418230256 24 198 14.5 24.1 0.00 0.00 0.00 51 1006.9
20190418225302 24 176 11.3 22.5 0.00 0.00 0.00 51 1007.0
20190418224248 24 163 8.0 29.0 0.00 0.00 0.00 52 1007.1
20190418223258 24 173 12.9 29.0 0.00 0.00 0.00 52 1007.4
20190418222303 24 160 12.9 24.1 0.00 0.00 0.00 52 1007.6
20190418221248 24 143 9.7 22.5 0.00 0.00 0.00 53 1007.9
20190418220252 24 175 14.5 27.4 0.00 0.00 0.00 53 1008.0
20190418215259 24 197 12.9 30.6 0.00 0.00 0.00 52 1008.0
20190418214304 24 148 17.7 33.8 0.00 0.00 0.00 52 1008.1
20190418213252 24 188 19.3 30.6 0.00 0.00 0.00 51 1008.2
20190418212258 23 167 8.0 29.0 0.00 0.00 0.00 54 1008.3
20190418211304 23 126 6.4 27.4 0.00 0.00 0.00 56 1008.5
20190418210307 23 159 16.1 27.4 0.00 0.00 0.00 54 1008.7
20190418205254 23 154 17.7 33.8 0.00 0.00 0.00 54 1008.8
20190418204307 23 163 11.3 30.6 0.00 0.00 0.00 57 1008.9
20190418203252 23 142 12.9 30.6 0.00 0.00 0.00 56 1008.9
20190418202302 23 161 11.3 27.4 0.00 0.00 0.00 59 1009.1
20190418201303 23 181 16.1 30.6 0.00 0.00 0.00 58 1009.2
20190418200309 23 175 11.3 25.7 0.00 0.00 0.00 59 1009.5
20190418195257 23 150 11.3 29.0 0.00 0.00 0.00 58 1009.6
20190418194304 22 105 14.5 27.4 0.00 0.00 0.00 60 1009.7
20190418193308 22 190 3.2 25.7 0.00 0.00 0.00 64 1010.0
20190418192251 22 157 11.3 22.5 0.00 0.00 0.00 63 1010.4
20190418191256 21 153 14.5 27.4 0.00 0.00 0.00 64 1010.7
20190418190257 21 177 11.3 27.4 0.00 0.00 0.00 65 1010.9
20190418185304 21 159 11.3 22.5 0.00 0.00 0.00 65 1011.0
20190418184256 21 157 4.8 16.1 0.00 0.00 0.00 65 1011.1
20190418183301 20 152 8.0 17.7 0.00 0.00 0.00 66 1011.3
20190418182250 20 154 6.4 14.5 0.00 0.00 0.00 63 1011.4
20190418181257 20 138 4.8 16.1 0.00 0.00 0.00 64 1011.8
20190418180301 20 186 11.3 17.7 0.00 0.00 0.00 65 1011.9
20190418175304 21 179 8.0 25.7 0.00 0.00 0.00 65 1012.0
20190418174255 21 118 6.4 16.1 0.00 0.00 0.00 65 1012.0
20190418173259 20 188 4.8 14.5 0.00 0.00 0.00 65 1012.2
20190418172307 20 166 9.7 17.7 0.00 0.00 0.00 66 1012.3
20190418171252 20 212 8.0 16.1 0.00 0.00 0.00 69 1012.5
20190418170255 19 150 12.9 20.9 0.00 0.00 0.00 70 1012.7
20190418165259 18 230 9.7 16.1 0.00 0.00 0.00 70 1012.9
20190418164251 18 175 4.8 14.5 0.00 0.00 0.00 71 1012.9
20190418163255 17 177 6.4 14.5 0.00 0.00 0.00 72 1013.0
20190418162304 17 259 3.2 9.7 0.00 0.00 0.00 73 1013.3
20190418161308 17 229 3.2 16.1 0.00 0.00 0.00 74 1013.3
20190418160254 16 203 1.6 14.5 0.00 0.00 0.00 75 1013.8
20190418155301 16 316 9.7 16.1 0.00 0.00 0.00 77 1014.1
20190418154309 16 185 8.0 14.5 0.00 0.00 0.00 77 1014.4
20190418153309 15 175 4.8 12.9 0.00 0.00 0.00 77 1014.5
20190418152254 15 178 4.8 9.7 0.00 0.00 0.00 79 1014.4
20190418151300 15 242 4.8 11.3 0.00 0.00 0.00 79 1014.5
20190418150308 15 168 1.6 9.7 0.00 0.00 0.00 79 1014.5
20190418145300 15 215 8.0 11.3 0.00 0.00 0.00 79 1014.5
20190418144304 15 139 6.4 12.9 0.00 0.00 0.00 80 1014.5
20190418143308 15 138 1.6 12.9 0.00 0.00 0.00 79 1014.6
20190418142257 15 190 4.8 12.9 0.00 0.00 0.00 79 1014.7
20190418141303 15 150 3.2 14.5 0.00 0.00 0.00 79 1014.6
20190418140250 14 139 4.8 12.9 0.00 0.00 0.00 81 1014.6
20190418135253 14 101 9.7 16.1 0.00 0.00 0.00 80 1014.7
20190418134256 14 114 9.7 17.7 0.00 0.00 0.00 81 1014.4
20190418133302 13 121 4.8 14.5 0.00 0.00 0.00 83 1014.7
20190418132309 13 101 9.7 17.7 0.00 0.00 0.00 84 1014.7